[[{"header":{"parameterUnit":"m.s-1","parameterCategory":1,"la1":30.2991,"la2":30.254,"lo1":-89.0895,"lo2":-89.0444,"dy":0.0017,"dx":0.0017,"nx":28,"ny":28,"refTime":"2024-03-22T21:00:00:Z","depth":0,"parameterNumber":2,"parameterNumberName":"U-component_of_WINDS"},"data":[0,0,0,0,0,0,0,0,0,0,0,0,0,0,0,0,0,0,0,0,0,0,0,0,0,0,0,0,0,0,0,0,0,0,0,0,0,0,0,0,0,0,0,0,0,0,0,0,0,0,0,0,0,0,0,0,0,0,-5.5339,-5.5339,0,-5.5327,-5.5326,-5.5326,-5.5155,-5.5151,-5.5147,-5.5143,-5.5131,-5.5135,-5.5138,0,0,0,0,0,0,0,0,0,0,0,0,0,-5.5219,-5.5222,-5.5339,-5.5339,-5.5339,-5.5327,-5.5326,-5.5326,-5.5156,-5.5151,-5.5146,-5.5141,-5.513,-5.5134,-5.5139,0,0,0,0,0,0,0,0,0,0,0,0,0,-5.5246,-5.5223,-5.5339,-5.5253,-5.5245,-5.5327,-5.5326,-5.5326,-5.5157,-5.5151,-5.5144,-5.5138,-5.5128,-5.5134,-5.5139,-5.5304,0,0,-5.5156,-5.5159,0,0,0,0,0,0,0,0,-5.5244,-5.525,-5.5266,-5.5259,-5.525,-5.5236,-5.5279,-5.5319,-5.5159,-5.5191,-5.5142,-5.5135,-5.5171,-5.5173,-5.5185,-5.5303,-5.5303,-5.5157,-5.516,-5.5163,-5.5164,0,0,0,0,0,0,0,-5.5243,-5.525,-5.5334,-5.5266,-5.5257,-5.5215,-5.5212,-5.5286,-5.5218,-5.5187,-5.5175,-5.5176,-5.5166,-5.518,-5.5183,-5.5303,-5.5157,-5.5162,-5.5165,-5.5167,-5.5557,-5.5564,0,0,0,0,0,0,-5.5253,-5.5249,-5.5335,-5.5334,-5.5231,-5.5223,-5.5219,-5.5247,-5.5216,-5.5205,-5.5181,-5.5168,-5.5173,-5.5177,-5.5182,-5.5374,-5.5163,-5.5168,-5.5171,-5.555,-5.5559,-5.5566,0,0,0,0,0,0,-5.5251,-5.5262,-5.5335,-5.5288,-5.5294,-5.5232,-5.5265,-5.525,-5.5264,-5.5212,-5.5199,-5.5208,-5.5169,-5.5174,-5.5275,-5.5371,-5.517,-5.5176,-5.5542,-5.5553,-5.5563,-5.5758,0,0,0,0,0,0,-5.5248,-5.5262,-5.5323,-5.5291,-5.5298,-5.5428,-5.5271,-5.5255,-5.5274,-5.5256,-5.5233,-5.5223,-5.5164,-5.5268,-5.5281,-5.5375,-5.518,-5.5533,-5.5547,-5.5559,-5.5743,-5.5774,-5.5801,0,0,0,0,0,-5.5244,-5.5379,-5.5327,-5.5338,-5.5373,-5.5434,-5.5438,-5.5366,-5.5282,-5.5344,-5.531,-5.5224,-5.5359,-5.528,-5.5293,-5.539,-5.5527,-5.5543,-5.5558,-5.573,-5.5768,-5.58,0,0,0,0,0,0,-5.5424,-5.5373,-5.5315,-5.5443,-5.5444,-5.5405,-5.548,-5.5408,-5.5434,-5.5416,-5.5327,-5.5323,-5.5438,-5.5424,-5.5337,-5.5549,-5.5428,-5.5447,-5.5554,-5.5589,-5.5618,-5.5619,-5.5185,0,0,0,0,0,-5.5478,-5.5532,-5.5484,-5.5602,-5.5605,-5.5544,-5.5567,-5.5512,-5.551,-5.551,-5.5483,-5.5485,-5.5528,-5.5558,-5.5594,-5.574,-5.5734,-5.5814,-5.5843,-5.5867,-5.5885,-5.5963,-5.5998,-5.5618,-5.5618,-5.5618,0,0,-5.5591,-5.557,-5.5609,-5.5637,-5.5631,-5.569,-5.5545,-5.5612,-5.5655,-5.552,-5.5613,-5.5595,-5.5591,-5.5716,-5.577,-5.5708,-5.5988,-5.5887,-5.5907,-5.5911,-5.5983,-5.6019,-5.6051,-5.5629,-5.5627,-5.5625,0,0,-5.5826,-5.5815,-5.5913,-5.5911,-5.5904,-5.5862,-5.5886,-5.5859,-5.5841,-5.5934,-5.5834,-5.5885,-5.5959,-5.5961,-5.5972,-5.6212,-5.6134,-5.6226,-5.6378,-5.6455,-5.6485,-5.6511,-5.6597,-5.6629,-5.6244,-5.6245,-5.6245,0,-5.5967,-5.6051,-5.5972,-5.6046,-5.6063,-5.5944,-5.6043,-5.6044,-5.6051,-5.6065,-5.5996,-5.6089,-5.6078,-5.6202,-5.6261,-5.6273,-5.6299,-5.6228,-5.6487,-5.6512,-5.6535,-5.6617,-5.6649,-5.6256,-5.6255,-5.6254,-5.6252,0,-5.6225,-5.6285,-5.6364,-5.6374,-5.6399,-5.6486,-5.6421,-5.6456,-5.64,-5.6366,-5.6464,-5.6446,-5.6478,-5.6503,-5.6449,-5.6621,-5.6583,-5.6502,-5.6378,-5.6584,-5.6659,-5.669,-5.6272,-5.6268,-5.6265,-5.6262,0,0,-5.6571,-5.6538,-5.6569,-5.6572,-5.6558,-5.6603,-5.6685,-5.6716,-5.6749,-5.6758,-5.6825,-5.6893,-5.6818,-5.683,-5.6775,-5.6843,-5.7036,-5.6753,-5.6752,-5.6807,-5.7226,-5.7288,-5.7325,-5.6984,-5.699,-5.6994,-5.7227,0,-5.6799,-5.6937,-5.687,-5.7016,-5.7071,-5.696,-5.7032,-5.7032,-5.7003,-5.7046,-5.7014,-5.7064,-5.6961,-5.6968,-5.703,-5.7,-5.7119,-5.6982,-5.7047,-5.705,-5.7052,-5.7364,-5.7429,-5.7649,-5.7256,-5.7261,-5.7264,0,-5.7083,-5.7105,-5.7257,-5.7234,-5.7255,-5.732,-5.7344,-5.7387,-5.7385,-5.736,-5.7376,-5.7305,-5.7385,-5.7264,-5.7374,-5.7282,-5.7305,-5.7295,-5.7301,-5.7305,-5.717,-5.7377,-5.7717,-5.7751,-5.731,-5.7306,-5.7303,0,-5.7321,-5.7389,-5.7489,-5.7495,-5.7471,-5.752,-5.7513,-5.7504,-5.7528,-5.755,-5.7564,-5.7595,-5.7613,-5.7639,-5.7579,-5.7496,-5.7699,-5.7571,-5.768,-5.7682,-5.7727,-5.7725,-5.8077,-5.7743,-5.7742,-5.7742,-5.7741,0,-5.7583,-5.768,-5.7596,-5.7658,-5.7764,-5.7687,-5.7795,-5.7775,-5.777,-5.7826,-5.7733,-5.7788,-5.7706,-5.7754,-5.7708,-5.7807,-5.7816,-5.7798,-5.7785,-5.7807,-5.7809,-5.782,-5.7803,-5.775,-5.7748,-5.7747,-5.7745,0,-5.7867,-5.7814,-5.7916,-5.7886,-5.788,-5.7961,-5.7935,-5.7991,-5.7957,-5.803,-5.8043,-5.799,-5.8041,-5.7985,-5.8032,-5.8001,-5.8135,-5.8099,-5.8136,-5.8126,-5.8238,-5.8229,-5.8609,-5.8656,-5.8292,-5.8296,-5.8299,0,-5.8037,-5.8109,-5.8088,-5.8119,-5.8117,-5.8169,-5.8193,-5.8121,-5.815,-5.8155,-5.8211,-5.8255,-5.8286,-5.8374,-5.834,-5.8376,-5.8341,-5.8472,-5.8345,-5.8366,-5.8343,-5.834,-5.8347,-5.8497,-5.8502,-5.8505,-5.8508,0,-5.8345,-5.8316,-5.8354,-5.8384,-5.8416,-5.8436,-5.8449,-5.848,-5.8405,-5.8443,-5.8495,-5.852,-5.8568,-5.8614,-5.8641,-5.8633,-5.856,-5.8549,-5.8576,-5.8598,-5.8617,-5.8609,-5.8206,-5.854,-5.8537,-5.8534,-5.8533,-5.8531,-5.8577,-5.8637,-5.8632,-5.8678,-5.8681,-5.8696,-5.8748,-5.8721,-5.8763,-5.8797,-5.8752,-5.8817,-5.8815,-5.8844,-5.8845,-5.8896,-5.884,-5.8879,-5.8889,-5.89,-5.8917,-5.861,-5.89,-5.8899,-5.8898,-5.8897,-5.8897,0,-5.8881,-5.8872,-5.8916,-5.8938,-5.8975,-5.8902,-5.8914,-5.895,-5.9008,-5.9013,-5.9046,-5.9107,-5.9151,-5.9121,-5.9158,-5.9205,-5.9172,-5.9217,-5.9213,-5.9213,-5.8964,-5.8937,-5.9243,-5.9243,-5.9243,-5.9243,-5.9243,-5.9243,-5.9043,-5.9141,-5.9113,-5.9212,-5.9202,-5.9265,-5.9278,-5.9292,-5.9296,-5.9368,-5.9404,-5.9385,-5.9376,-5.9413,-5.9451,-5.9441,-5.9459,-5.9517,-5.9495,-5.9264,-5.923,-5.9197,-5.9171,-5.9521,-5.9522,-5.9739,-5.9741,-5.9742]},{"header":{"parameterUnit":"m.s-1","parameterCategory":1,"la1":30.2991,"la2":30.254,"lo1":-89.0895,"lo2":-89.0444,"dy":0.0017,"dx":0.0017,"nx":28,"ny":28,"refTime":"2024-03-22T21:00:00:Z","depth":0,"parameterNumber":3,"parameterNumberName":"V-component_of_WINDS"},"data":[0,0,0,0,0,0,0,0,0,0,0,0,0,0,0,0,0,0,0,0,0,0,0,0,0,0,0,0,0,0,0,0,0,0,0,0,0,0,0,0,0,0,0,0,0,0,0,0,0,0,0,0,0,0,0,0,0,0,-1.4732,-1.4732,0,-1.4729,-1.4729,-1.4729,-1.4732,-1.4732,-1.4732,-1.4732,-1.4727,-1.4727,-1.4727,0,0,0,0,0,0,0,0,0,0,0,0,0,-1.4737,-1.4737,-1.4732,-1.4732,-1.4732,-1.4729,-1.4729,-1.4729,-1.4732,-1.4732,-1.4732,-1.4733,-1.4727,-1.4727,-1.4727,0,0,0,0,0,0,0,0,0,0,0,0,0,-1.4735,-1.4737,-1.4732,-1.4733,-1.4733,-1.4729,-1.4729,-1.4729,-1.4732,-1.4732,-1.4732,-1.4733,-1.4727,-1.4727,-1.4727,-1.472,0,0,-1.4725,-1.4725,0,0,0,0,0,0,0,0,-1.4735,-1.4734,-1.4733,-1.4733,-1.4733,-1.4731,-1.4729,-1.4726,-1.4732,-1.4732,-1.4732,-1.4733,-1.4728,-1.4728,-1.4727,-1.472,-1.4719,-1.4725,-1.4725,-1.4725,-1.4725,0,0,0,0,0,0,0,-1.4735,-1.4735,-1.4731,-1.4733,-1.4733,-1.4733,-1.4733,-1.4728,-1.4729,-1.4732,-1.4733,-1.4732,-1.4728,-1.4727,-1.4726,-1.4719,-1.4725,-1.4725,-1.4725,-1.4725,-1.4703,-1.4703,0,0,0,0,0,0,-1.4735,-1.4735,-1.4731,-1.473,-1.4735,-1.4732,-1.4732,-1.4731,-1.4729,-1.4729,-1.4732,-1.4733,-1.4728,-1.4727,-1.4726,-1.4716,-1.4725,-1.4725,-1.4724,-1.4704,-1.4703,-1.4703,0,0,0,0,0,0,-1.4736,-1.4735,-1.4731,-1.4733,-1.4732,-1.4732,-1.4731,-1.4731,-1.473,-1.4729,-1.4729,-1.4731,-1.4728,-1.4727,-1.4721,-1.4716,-1.4724,-1.4724,-1.4704,-1.4704,-1.4703,-1.4697,0,0,0,0,0,0,-1.4736,-1.4735,-1.4734,-1.4733,-1.4732,-1.4727,-1.4731,-1.4731,-1.473,-1.473,-1.4728,-1.4728,-1.4728,-1.4721,-1.472,-1.4716,-1.4724,-1.4704,-1.4704,-1.4703,-1.4698,-1.4697,-1.4696,0,0,0,0,0,-1.4736,-1.4732,-1.4734,-1.4733,-1.473,-1.4726,-1.4726,-1.4727,-1.4729,-1.4727,-1.4726,-1.4728,-1.4717,-1.4721,-1.472,-1.4715,-1.4705,-1.4704,-1.4703,-1.4699,-1.4697,-1.4696,0,0,0,0,0,0,-1.4733,-1.4732,-1.4734,-1.473,-1.4728,-1.4727,-1.4724,-1.4726,-1.4723,-1.4723,-1.4724,-1.4723,-1.4716,-1.4715,-1.4719,-1.4707,-1.4711,-1.471,-1.4708,-1.4706,-1.4705,-1.4705,-1.4723,0,0,0,0,0,-1.4732,-1.473,-1.4729,-1.4726,-1.4725,-1.4725,-1.4723,-1.4724,-1.4721,-1.4721,-1.4719,-1.4716,-1.4712,-1.4709,-1.4705,-1.4698,-1.4696,-1.4694,-1.4693,-1.4692,-1.4691,-1.4684,-1.4682,-1.4701,-1.4701,-1.4701,0,0,-1.473,-1.4729,-1.4728,-1.4725,-1.4724,-1.472,-1.4724,-1.4721,-1.4717,-1.472,-1.4714,-1.4712,-1.4709,-1.4701,-1.4698,-1.47,-1.4685,-1.4691,-1.469,-1.4689,-1.4683,-1.4681,-1.4679,-1.47,-1.47,-1.47,0,0,-1.4724,-1.4724,-1.472,-1.4718,-1.4716,-1.4715,-1.4714,-1.4712,-1.4711,-1.4705,-1.4706,-1.4702,-1.4695,-1.4692,-1.4689,-1.4679,-1.4679,-1.4677,-1.4671,-1.4665,-1.4663,-1.4662,-1.4656,-1.4654,-1.4676,-1.4676,-1.4676,0,-1.4721,-1.4717,-1.4718,-1.4714,-1.4711,-1.4713,-1.4708,-1.4706,-1.4702,-1.47,-1.4702,-1.4692,-1.469,-1.4681,-1.4678,-1.4676,-1.4673,-1.4678,-1.4663,-1.4662,-1.4661,-1.4655,-1.4653,-1.4676,-1.4676,-1.4676,-1.4676,0,-1.4713,-1.4709,-1.4706,-1.4702,-1.47,-1.4695,-1.4694,-1.4691,-1.469,-1.4689,-1.4681,-1.4678,-1.4673,-1.4671,-1.4671,-1.466,-1.4661,-1.4664,-1.4668,-1.4659,-1.4653,-1.4651,-1.4676,-1.4676,-1.4676,-1.4676,0,0,-1.4706,-1.4701,-1.47,-1.4697,-1.4693,-1.469,-1.4684,-1.4679,-1.4675,-1.4672,-1.4665,-1.4658,-1.466,-1.4657,-1.4656,-1.465,-1.4639,-1.4653,-1.4653,-1.4649,-1.4624,-1.4621,-1.4619,-1.464,-1.4639,-1.4639,-1.4623,0,-1.4699,-1.469,-1.4689,-1.468,-1.4676,-1.4676,-1.467,-1.4666,-1.4664,-1.4659,-1.4656,-1.465,-1.4653,-1.4651,-1.4645,-1.4642,-1.4634,-1.4643,-1.4632,-1.4632,-1.4632,-1.4617,-1.4615,-1.46,-1.4622,-1.4621,-1.4621,0,-1.469,-1.4686,-1.4676,-1.467,-1.4668,-1.4664,-1.4657,-1.4652,-1.4647,-1.4645,-1.464,-1.464,-1.4632,-1.4636,-1.4624,-1.463,-1.4625,-1.4622,-1.4622,-1.462,-1.4625,-1.4613,-1.4596,-1.4593,-1.4618,-1.4618,-1.4619,0,-1.4684,-1.4676,-1.4669,-1.4666,-1.466,-1.4656,-1.4653,-1.4648,-1.4643,-1.4637,-1.4634,-1.4627,-1.4622,-1.4616,-1.4613,-1.4617,-1.4599,-1.4604,-1.4596,-1.4596,-1.4592,-1.4592,-1.4572,-1.4591,-1.4591,-1.4591,-1.4591,0,-1.4676,-1.4669,-1.4665,-1.4661,-1.4653,-1.4651,-1.4643,-1.464,-1.4634,-1.4627,-1.4627,-1.462,-1.4617,-1.4609,-1.4606,-1.4595,-1.4593,-1.459,-1.4589,-1.459,-1.459,-1.4586,-1.4586,-1.459,-1.459,-1.4591,-1.4591,0,-1.4668,-1.4666,-1.4657,-1.4651,-1.4649,-1.4643,-1.4637,-1.4632,-1.4628,-1.462,-1.4617,-1.4612,-1.4603,-1.4599,-1.4587,-1.4585,-1.4571,-1.4572,-1.4573,-1.4572,-1.4563,-1.4564,-1.454,-1.4536,-1.4558,-1.4558,-1.4558,0,-1.4663,-1.4658,-1.4651,-1.4646,-1.4643,-1.4636,-1.4631,-1.4628,-1.4623,-1.4614,-1.4609,-1.4599,-1.4591,-1.4575,-1.457,-1.456,-1.4559,-1.4552,-1.4558,-1.4557,-1.4557,-1.4557,-1.4555,-1.455,-1.455,-1.455,-1.455,0,-1.4653,-1.4651,-1.4645,-1.4637,-1.4631,-1.4624,-1.4618,-1.4614,-1.461,-1.4603,-1.4593,-1.4587,-1.4574,-1.4564,-1.4553,-1.4548,-1.4547,-1.4548,-1.4545,-1.4545,-1.4545,-1.4542,-1.4568,-1.4548,-1.4548,-1.4548,-1.4549,-1.4549,-1.4645,-1.464,-1.4633,-1.4625,-1.4619,-1.4613,-1.4606,-1.4601,-1.4593,-1.4583,-1.4581,-1.457,-1.4561,-1.4546,-1.4541,-1.453,-1.4532,-1.4529,-1.4528,-1.4526,-1.4525,-1.4547,-1.4529,-1.4529,-1.4529,-1.4529,-1.4529,0,-1.4634,-1.4629,-1.4621,-1.4612,-1.4604,-1.4604,-1.4596,-1.459,-1.458,-1.4572,-1.4564,-1.4551,-1.454,-1.4532,-1.452,-1.4513,-1.4512,-1.451,-1.451,-1.4508,-1.4525,-1.4528,-1.4511,-1.4511,-1.4511,-1.4511,-1.4511,-1.4511,-1.4627,-1.4617,-1.4613,-1.4599,-1.4594,-1.4583,-1.4578,-1.4571,-1.4564,-1.4549,-1.454,-1.4535,-1.4526,-1.4513,-1.4502,-1.45,-1.4495,-1.4492,-1.449,-1.4506,-1.4507,-1.4509,-1.4512,-1.4492,-1.4492,-1.4474,-1.4473,-1.4473]}]]